Location: Izdebno
(52.6670°N, 16.2170°E)
Time: 10:41:04
(UTC+01:00)

Transit 2A - Pass Details

Date: 31 January 2023
Orbit: 591 x 964 km, 66.7° (Epoch: 21 March)

Event Time Altitude Azimuth Distance (km) Brightness Sun altitude
Rises 04:23:10 0° 308° (NW) 3,517 - -29.7°
Reaches altitude 10° 04:27:21 10° 280° (W) 2,635 - -29.1°
Maximum altitude 04:29:38 12° 258° (WSW) 2,499 - -28.7°
Drops below altitude 10° 04:31:57 10° 237° (WSW) 2,677 - -28.4°
Sets 04:36:19 0° 209° (SSW) 3,639 - -27.7°
